Weather observations for the past three days for
Auburn-Opelika Airport
Imperial (Metric)
Date Time (cdt) Wind (mph) Vis. (mi.) Weather Sky Cond. Temperature (ºF) Relative Humidity Wind Chill (°F) Heat Index (°F) Pressure Precipitation (in)
Air Dwpt 6 hour altimeter (in) sea level (mb) 1 hr 3 hr 6 hr
Max. Min.
23 12:56 SW 7 10.00 Mostly Cloudy FEW030 BKN041 87.1 75 87.1 75 67% 97 30.13 1019.2
23 11:56 SW 8 10.00 Mostly Cloudy BKN029 86 75.9 72% 96 30.15 1019.8
23 10:56 S 8 10.00 Partly Cloudy SCT019 84 75.9 77% 93 30.16 1019.8
23 09:56 Vrbl 3 10.00 Fair CLR 82 75 79% 89 30.15 1019.5
23 08:56 NW 3 10.00 Fair CLR 80.1 73.9 82% 85 30.14 1019.4
23 07:56 NW 3 10.00 Fair CLR 78.1 73.9 87% 81 30.13 0.0
23 06:56 SW 3 10.00 Mostly Cloudy BKN003 73.9 73.9 73.9 72 100% 30.13 0.0
23 05:56 Calm 9.00 Overcast OVC005 73 73 100% 30.12 0.0
23 04:56 Calm 10.00 Fair CLR 73 72 96% 30.11 0.0
23 03:56 S 5 10.00 Partly Cloudy SCT022 72 72 100% 30.09 0.0
23 02:56 S 6 10.00 Fair CLR 72 71.1 97% 30.08 0.0
23 01:56 S 5 10.00 Mostly Cloudy BKN030 73 73 100% 30.09 0.0
23 00:56 S 3 10.00 A Few Clouds FEW024 73 73 100% 30.1 0.0
22 23:56 Calm 10.00 Fair CLR 73 72 96% 30.11 0.0
22 22:56 SE 5 10.00 Fair CLR 72 72 100% 30.1 0.0
22 21:56 S 5 10.00 Fair CLR 73 73 100% 30.09 0.0
22 20:56 S 6 10.00 NULL NULL 73.9 73 97% 30.08 0.0
22 14:56 SW 10 10.00 Partly Cloudy SCT035 84.9 72 65% 91 30.06 1016.4
22 13:56 W 6 10.00 Mostly Cloudy FEW028 SCT042 BKN050 82.9 73.9 74% 89 30.08 1017.3
22 12:56 SW 6 10.00 Mostly Cloudy SCT021 BKN027 82 73.9 82.9 71.1 77% 88 30.1 1018.0 0.01
22 11:56 SW 6 10.00 Mostly Cloudy BKN016 79 73 82% 82 30.11 1018.6
22 10:56 Calm 10.00 Mostly Cloudy BKN012 77 73 88% 78 30.12 1018.7
22 09:56 Calm 10.00 A Few Clouds FEW012 75.9 72 88% 76 30.13 1019.1 0.01
22 08:56 Calm 10.00 Partly Cloudy SCT014 73 73 100% 30.11 1018.7
22 07:56 Calm 10.00 Mostly Cloudy FEW004 BKN014 BKN028 71.1 71.1 100% 30.1 1018.4 0.01
22 06:56 Calm 10.00 Overcast OVC002 71.1 71.1 71.1 70 100% 30.09 1018.0
22 05:56 Calm 10.00 Overcast OVC002 70 70 100% 30.07 1017.2
22 04:56 Calm 0.75 Fog/Mist OVC002 71.1 71.1 100% 30.06 1016.8
22 03:56 Calm 0.50 Fog OVC002 70 70 100% 30.04 1016.2
22 02:56 S 3 0.50 Fog OVC002 70 70 100% 30.05 1016.2
22 01:56 S 5 0.75 Fog/Mist OVC002 71.1 71.1 100% 30.07 1017.0
22 00:56 SW 5 5.00 Fog/Mist OVC004 70 70 71.1 70 100% 30.09 1017.7 0.32
21 23:56 SW 7 10.00 Light Rain FEW120 70 70 100% 30.09 1017.6 0.01
21 22:56 SE 7 9.00 Light Rain BKN003 BKN017 OVC095 70 70 100% 30.1 1018.0 0.11
21 21:56 S 5 10.00 Light Rain BKN008 OVC070 71.1 71.1 100% 30.13 1018.9 0.07 0.2
21 20:56 Calm 10.00 Light Rain FEW050 OVC100 71.1 71.1 100% 30.11 1018.4 0.01
21 19:56 Calm 6.00 Light Rain Fog/Mist FEW075 OVC100 71.1 71.1 100% 30.06 1016.9 0.12
21 18:56 S 9 8.00 Light Rain OVC095 71.1 70 88 71.1 96% 30.07 1017.0 0.09 0.21
21 17:56 SE 3 10.00 Light Rain FEW075 BKN100 OVC110 73 72 96% 30.07 1017.0 0.03
21 16:56 SE 7 6.00 Light Rain Fog/Mist FEW005 BKN095 OVC110 72 72 100% 30.06 1016.7 0.03
21 15:56 E 8 10.00 Thunderstorm in Vicinity FEW007 SCT012 OVC021 73.9 73 97% 30.07 1017.1 0.06 0.06
21 14:56 W 8 10.00 Thunderstorm in Vicinity BKN032 BKN110 84.9 75 72% 93 30.04 1016.1
21 13:56 SW 8 7.00 Partly Cloudy FEW033 SCT055 88 75 66% 98 30.04 1016.0
21 12:56 S 6 10.00 Partly Cloudy SCT034 86 73.9 87.1 75 67% 94 30.06 1016.6 0.01
21 11:56 Vrbl 3 10.00 Mostly Cloudy SCT026 BKN036 84 73.9 72% 91 30.09 1017.8
21 10:56 NW 7 10.00 Mostly Cloudy BKN021 BKN029 82.9 75.9 79% 91 30.11 1018.1
21 09:56 W 5 10.00 Mostly Cloudy BKN013 80.1 77 90% 86 30.1 1017.9 0.01
21 08:56 SW 6 3.00 Fog/Mist BKN005 OVC009 77 77 100% 78 30.11 1018.3 0.01
21 07:56 SW 7 1.50 Light Rain Fog/Mist OVC003 75 75 100% 72 30.11 1018.4
21 06:56 SW 6 4.00 Fog/Mist OVC003 75 75 75 73.9 100% 72 30.1 1018.1 0.01
21 05:56 S 7 6.00 Fog/Mist OVC003 75 75 100% 72 30.09 1017.8
21 04:56 S 9 9.00 Overcast OVC003 75 75 100% 72 30.08 1017.4
21 03:56 S 9 10.00 Overcast OVC003 75 75 100% 72 30.08 1017.3 0.04 0.04
21 02:56 S 7 8.00 Light Rain OVC003 75 75 100% 72 30.09 1017.6
21 01:56 S 6 10.00 Overcast OVC003 75 75 100% 72 30.09 1017.9
21 00:56 S 5 8.00 Overcast OVC003 73.9 73.9 78.1 73.9 100% 30.1 1018.2
20 23:56 S 7 10.00 Overcast OVC003 75 75 100% 72 30.11 1018.4
20 22:56 SE 7 10.00 Overcast OVC003 75 75 100% 72 30.11 1018.3
20 21:56 SE 7 10.00 Overcast OVC005 75 75 100% 72 30.12 1018.6
20 20:56 SE 5 10.00 Overcast BKN019 OVC028 75.9 75.9 100% 75 30.11 1018.4
20 19:56 Calm 10.00 Fair CLR 75.9 75 97% 75 30.07 1017.1
20 18:56 Calm 8.00 Partly Cloudy SCT060 78.1 75 79 73.9 90% 81 30.08 1017.3 0.03
20 17:56 S 7 10.00 A Few Clouds FEW011 78.1 75 90% 81 30.09 1017.8
20 16:56 SE 6 10.00 Partly Cloudy SCT011 79 75 88% 83 30.08 1017.3
20 15:56 S 3 8.00 A Few Clouds FEW006 75.9 75 97% 75 30.1 1018.1 0.03
20 14:56 Calm 10.00 Light Rain BKN004 73.9 73.9 100% 30.11 1018.4 0.02
20 13:56 SE 5 7.00 Thunderstorm Light Rain SCT036 BKN060 OVC070 73.9 73 97% 30.13 1019.0 0.01
Date Time (cdt) Wind (mph) Vis. (mi.) Weather Sky Cond. Air Dwpt Max. Min. Relative Humidity Wind Chill (°F) Heat Index (°F) altimeter (in) sea level (mb) 1 hr 3 hr 6 hr
6 hour
Temperature (ºF) Pressure Precipitation (in)